ARCTURUS

Last updated on Tue Sep 22 2026 00:03:16 GMT+0000 (Coordinated Universal Time)

1 56371U 23060B 26264.29900983 -.00000364 00000+0 00000+0 0 9995 2 56371 3.0154 78.6844 0000799 200.1073 308.7925 1.00274236 12420
UTC large
Height (km)
Speed (km/s)
/
Latitude / Longitude
Inclination (degrees)
Orbital Period (minutes)
Azimuth
Elevation
Range (km)
Doppler Factor

Next 0 passes for location: London (51.5072 / 0.1276)

No passes found over London.
ARCTURUS